Atlantic - Newfoundland: Past 24 Hour Conditions

 

Port aux Basques

11:30 PM NDT 25 October 2014
This table is a summary of hourly weather conditions for the past 24 hours.
Date / Time
(NDT)
Wind(knots) Conditions Visibility(km) Pressure(kPa) Air tempC) Relative humidity(%) Dew pointC)
25 October 2014
23:30 ENE 10 Mainly Clear 15 99.9 7 88 5
22:30 ENE 12 gust 19 Cloudy 15 99.9 7 86 5
21:30 E 6 Cloudy 15 99.9 8 84 5
20:30 ENE 7 Cloudy 15 99.9 8 90 6
19:30 E 11 Cloudy 15 99.8 8 87 6
18:30 E 13 Cloudy 15 99.8 8 87 6
17:30 E 8 Cloudy 15 99.7 9 92 7
16:30 ENE 10 Cloudy 13 99.7 9 94 8
15:30 E 14 Cloudy 15 99.7 9 87 7
14:30 ENE 11 Cloudy 15 99.7 9 87 7
13:30 ENE 12 Cloudy 15 99.6 9 87 7
12:30 E 13 gust 18 Cloudy 15 99.6 10 83 7
11:30 ENE 14 Cloudy 15 99.6 10 84 7
10:30 ENE 15 Cloudy 15 99.6 10 86 8
9:30 E 12 Cloudy 15 99.6 10 89 8
8:30 ENE 12 gust 19 Cloudy 15 99.5 10 89 8
7:30 E 16 gust 22 Cloudy 15 99.5 10 90 8
6:30 E 10 gust 16 Light Rain 15 99.5 11 93 9
5:30 ENE 15 Rain 11 99.5 11 95 10
4:30 ENE 17 gust 22 Cloudy 15 99.5 12 91 10
3:30 E 22 gust 27 Cloudy 15 99.6 11 91 10
2:30 ENE 19 gust 26 Cloudy 15 99.6 11 92 10
1:30 ENE 21 Mostly Cloudy 15 99.7 11 92 10
0:30 ENE 19 gust 28 Cloudy 15 99.8 11 94 10
24 October 2014
23:30 ENE 21 gust 26 Mostly Cloudy 15 99.8 11 93 10
 
Map of Atlantic - Newfoundland marine weather areas Southwestern Grand Banks - 44138 Banquereau - 44139 Tail of the Bank - 44140 Nickerson Bank - 44251 Northeast Burgeo Bank - 44255 Blanc-Sablon Airport Cap Whittle Chevery Natashquan Airport Heath Point Miscou Island Grand Étang Ingonish Beach North Mountain St.Paul Island J.A. Douglas McCurdy Sydney Airport Charlottetown Airport East Point North Cape Argentia Bonavista Burgeo Cape Race Corner Brook Daniel's Harbour Englee Ferolle Point La Scie Port aux Basques Rocky Harbour Sagona Island St. Anthony Airport St. John's Int'l Airport St. Lawrence Stephenville Airport Twillingate Winterland Wreckhouse Cartwright Airport Mary's Harbour Grates Cove Pool's Island Marticot Island Long Pond Îles de la Madeleine Airport
Legend: buoyBuoy land stationLand Station